Location: �mondeville
(49.4591°N, 1.3431°W)
Time: 05:59:03
(UTC+00:00)

COSMOS 2455 - Pass Details

Date: 22 October 2019
Orbit: 901 x 909 km, 67.1° (Epoch: 14 November)

Event Time Altitude Azimuth Distance (km) Brightness Sun altitude
Exits shadow 02:53:16 39° 31° (NNE) 1,347 4.0 -36.1°
Drops below altitude 10° 02:56:54 10° 35° (NE) 2,603 5.9 -35.5°
Sets 02:59:25 0° 36° (NE) 3,548 6.8 -35.2°
